PST,Max TemperatureF,Mean TemperatureF,Min TemperatureF,Max Dew PointF,MeanDew PointF,Min DewpointF,Max Humidity, Mean Humidity, Min Humidity, Max Sea Level PressureIn, Mean Sea Level PressureIn, Min Sea Level PressureIn, Max VisibilityMiles, Mean VisibilityMiles, Min VisibilityMiles, Max Wind SpeedMPH, Mean Wind SpeedMPH, Max Gust SpeedMPH,PrecipitationIn, CloudCover, Events, WindDirDegrees
2013-2-1,52,37,22,32,27,21,100,71,41,30.43,30.36,30.31,10,10,10,8,2,10,0.00,0,,96
2013-2-2,51,35,19,32,25,17,100,73,46,30.46,30.39,30.30,10,10,10,10,1,13,0.00,0,,70
2013-2-3,57,40,22,30,27,21,100,65,30,30.31,30.23,30.15,10,10,10,8,2,9,0.00,1,,101
2013-2-4,54,42,30,30,27,23,85,57,29,30.17,30.07,29.92,10,10,10,8,2,9,0.00,2,,69
2013-2-5,50,40,29,34,26,21,78,58,37,30.05,29.94,29.88,10,10,10,16,5,20,T,3,,216
2013-2-6,48,39,30,26,24,23,85,62,38,30.11,30.01,29.90,10,10,10,17,7,23,0.00,1,,164
2013-2-7,43,33,23,28,24,20,85,63,41,30.08,29.96,29.88,10,9,2,13,3,15,T,4,Snow,352
2013-2-8,41,28,14,23,18,13,92,65,38,30.19,30.16,30.09,10,10,10,15,4,18,0.00,0,,333
2013-2-9,44,30,16,28,21,13,96,73,49,30.23,30.19,30.14,10,10,10,12,3,15,0.00,0,,191
2013-2-10,46,32,18,27,23,17,92,65,38,30.32,30.26,30.19,10,10,10,13,3,15,0.00,2,,262
2013-2-11,50,34,17,31,23,16,92,65,37,30.34,30.28,30.22,10,10,10,15,5,18,0.00,2,,81
2013-2-12,50,38,25,30,27,23,92,67,42,30.43,30.40,30.34,10,10,10,21,6,28,0.00,4,,217
2013-2-13,46,36,25,32,28,23,92,73,53,30.47,30.42,30.38,10,10,9,13,3,16,T,3,,102
2013-2-14,54,39,23,34,29,22,92,69,46,30.56,30.50,30.46,10,10,10,9,4,12,0.00,0,,107
2013-2-15,60,40,20,37,30,19,96,67,37,30.51,30.39,30.26,10,10,9,12,3,16,0.00,0,,210
2013-2-16,54,39,23,32,27,23,92,66,39,30.25,30.18,30.13,10,10,10,26,8,35,0.00,1,,322
2013-2-17,45,33,20,23,19,14,91,61,30,30.22,30.15,30.07,10,10,10,14,4,16,0.00,0,,290
2013-2-18,41,31,20,23,20,17,91,68,44,30.05,29.90,29.74,10,10,10,14,3,17,0.00,4,,360
2013-2-19,44,30,16,24,19,14,92,68,43,29.95,29.77,29.68,10,10,10,16,4,22,0.00,3,,18
2013-2-20,43,31,18,25,20,17,91,65,39,30.05,30.01,29.96,10,10,10,18,6,23,0.00,4,,199
2013-2-21,41,32,23,25,22,19,88,66,44,30.16,30.12,30.05,10,10,10,20,6,23,0.00,7,,211
2013-2-22,48,39,29,32,27,24,85,67,49,30.14,29.98,29.85,10,8,1,28,11,44,0.01,6,Rain-Snow,233
2013-2-23,40,32,23,23,20,17,85,65,44,30.37,30.20,30.01,10,10,10,24,11,32,0.00,1,,279
2013-2-24,48,33,18,26,20,14,84,59,34,30.41,30.29,30.05,10,10,10,13,5,18,0.00,1,,158
2013-2-25,43,33,22,29,23,18,81,59,36,30.32,30.16,29.98,10,10,10,31,13,39,T,2,Rain,267
2013-2-26,49,33,17,20,13,4,84,50,16,30.37,30.30,30.24,10,10,10,12,4,17,0.00,1,,139
2013-2-27,50,45,40,31,23,14,81,59,36,30.32,30.26,30.23,10,10,10,14,4,18,0.00,5,,150
2013-2-28,55,44,32,38,35,28,92,72,51,30.47,30.32,30.22,10,10,8,20,7,25,T,6,,171